Time,TemperatureF,DewpointF,PressureIn,WindDirection,WindDirectionDegrees,WindSpeedMPH,WindSpeedGustMPH,Humidity,HourlyPrecipIn,Conditions,Clouds,dailyrainin,SolarRadiationWatts/m^2,SoftwareType,DateUTC
2013-06-30 00:02:00,60.0,51.0,-100.00,NNE,18,3.0,5.0,71,0.00,,,0.47,0.000000,,2013-06-30 05:02:00,
2013-06-30 00:34:00,57.0,52.0,-100.00,NNW,342,3.0,5.0,84,0.00,,,0.44,0.000000,,2013-06-30 05:34:00,
2013-06-30 00:43:00,57.0,52.0,-100.00,NNW,342,3.0,5.0,84,0.00,,,0.44,0.000000,,2013-06-30 05:43:00,
2013-06-30 00:53:00,57.0,52.0,-100.00,NNW,342,3.0,5.0,84,0.00,,,0.44,0.000000,,2013-06-30 05:53:00,
2013-06-30 01:02:00,57.0,52.0,-100.00,NNW,342,3.0,5.0,84,0.00,,,0.44,0.000000,,2013-06-30 06:02:00,
2013-06-30 01:34:00,54.0,52.0,-100.00,North,358,2.0,5.0,93,0.00,,,0.41,0.000000,,2013-06-30 06:34:00,
2013-06-30 01:43:00,54.0,52.0,-100.00,North,358,2.0,5.0,93,0.00,,,0.41,0.000000,,2013-06-30 06:43:00,
2013-06-30 01:53:00,54.0,52.0,-100.00,North,358,2.0,5.0,93,0.00,,,0.41,0.000000,,2013-06-30 06:53:00,
2013-06-30 02:02:00,54.0,52.0,-100.00,North,358,2.0,5.0,93,0.00,,,0.41,0.000000,,2013-06-30 07:02:00,
2013-06-30 02:33:00,54.0,52.0,-100.00,NW,323,2.0,5.0,94,0.00,,,0.25,0.000000,,2013-06-30 07:33:00,
2013-06-30 02:44:00,54.0,52.0,-100.00,NW,323,2.0,5.0,94,0.00,,,0.25,0.000000,,2013-06-30 07:44:00,
2013-06-30 02:53:00,54.0,52.0,-100.00,NW,323,2.0,5.0,94,0.00,,,0.25,0.000000,,2013-06-30 07:53:00,
2013-06-30 03:02:00,54.0,52.0,-100.00,NW,323,2.0,5.0,94,0.00,,,0.25,0.000000,,2013-06-30 08:02:00,
2013-06-30 03:34:00,53.0,52.0,-100.00,North,356,2.0,4.0,96,0.00,,,0.11,0.000000,,2013-06-30 08:34:00,
2013-06-30 03:42:00,53.0,52.0,-100.00,North,356,2.0,4.0,96,0.00,,,0.11,0.000000,,2013-06-30 08:42:00,
2013-06-30 03:53:00,53.0,52.0,-100.00,North,356,2.0,4.0,96,0.00,,,0.11,0.000000,,2013-06-30 08:53:00,
2013-06-30 04:01:00,53.0,52.0,-100.00,North,356,2.0,4.0,96,0.00,,,0.11,0.000000,,2013-06-30 09:01:00,
2013-06-30 04:34:00,53.0,51.0,-100.00,NNW,332,2.0,5.0,94,0.00,,,0.01,0.000000,,2013-06-30 09:34:00,
2013-06-30 04:43:00,53.0,51.0,-100.00,NNW,332,2.0,5.0,94,0.00,,,0.01,0.000000,,2013-06-30 09:43:00,
2013-06-30 04:53:00,53.0,51.0,-100.00,NNW,332,2.0,5.0,94,0.00,,,0.01,0.000000,,2013-06-30 09:53:00,
2013-06-30 05:02:00,53.0,51.0,-100.00,NNW,332,2.0,5.0,94,0.00,,,0.01,0.000000,,2013-06-30 10:02:00,
2013-06-30 05:34:00,52.0,50.0,-100.00,NNW,331,3.0,4.0,93,0.00,,,0.00,0.000000,,2013-06-30 10:34:00,
2013-06-30 05:43:00,52.0,50.0,-100.00,NNW,331,3.0,4.0,93,0.00,,,0.00,0.000000,,2013-06-30 10:43:00,
2013-06-30 05:53:00,52.0,50.0,-100.00,NNW,331,3.0,4.0,93,0.00,,,0.00,0.000000,,2013-06-30 10:53:00,
2013-06-30 06:02:00,52.0,50.0,-100.00,NNW,331,3.0,4.0,93,0.00,,,0.00,0.000000,,2013-06-30 11:02:00,
2013-06-30 06:33:00,54.0,52.0,-100.00,North,351,4.0,6.0,93,0.00,,,0.00,10.000000,,2013-06-30 11:33:00,
2013-06-30 06:43:00,54.0,52.0,-100.00,North,351,4.0,6.0,93,0.00,,,0.00,10.000000,,2013-06-30 11:43:00,
2013-06-30 06:53:00,54.0,52.0,-100.00,North,351,4.0,6.0,93,0.00,,,0.00,10.000000,,2013-06-30 11:53:00,
2013-06-30 07:02:00,54.0,52.0,-100.00,North,351,4.0,6.0,93,0.00,,,0.00,10.000000,,2013-06-30 12:02:00,
2013-06-30 07:33:00,58.0,54.0,-100.00,NNW,336,4.0,6.0,87,0.00,,,0.00,93.000000,,2013-06-30 12:33:00,
2013-06-30 07:43:00,58.0,54.0,-100.00,NNW,336,4.0,6.0,87,0.00,,,0.00,93.000000,,2013-06-30 12:43:00,
2013-06-30 07:52:00,58.0,54.0,-100.00,NNW,336,4.0,6.0,87,0.00,,,0.00,93.000000,,2013-06-30 12:52:00,
2013-06-30 08:02:00,58.0,54.0,-100.00,NNW,336,4.0,6.0,87,0.00,,,0.00,93.000000,,2013-06-30 13:02:00,
2013-06-30 08:34:00,64.0,56.0,-100.00,NNW,336,5.0,7.0,75,0.00,,,0.00,285.000000,,2013-06-30 13:34:00,
2013-06-30 08:44:00,64.0,56.0,-100.00,NNW,336,5.0,7.0,75,0.00,,,0.00,285.000000,,2013-06-30 13:44:00,
2013-06-30 08:53:00,64.0,56.0,-100.00,NNW,336,5.0,7.0,75,0.00,,,0.00,285.000000,,2013-06-30 13:53:00,
2013-06-30 09:02:00,64.0,56.0,-100.00,NNW,336,5.0,7.0,75,0.00,,,0.00,285.000000,,2013-06-30 14:02:00,
2013-06-30 09:33:00,69.0,55.0,-100.00,North,354,6.0,10.0,62,0.00,,,0.00,424.000000,,2013-06-30 14:33:00,
2013-06-30 09:44:00,69.0,55.0,-100.00,North,354,6.0,10.0,62,0.00,,,0.00,424.000000,,2013-06-30 14:44:00,
2013-06-30 09:52:00,69.0,55.0,-100.00,North,354,6.0,10.0,62,0.00,,,0.00,424.000000,,2013-06-30 14:52:00,
2013-06-30 10:02:00,69.0,55.0,-100.00,North,354,6.0,10.0,62,0.00,,,0.00,424.000000,,2013-06-30 15:02:00,
2013-06-30 10:35:00,73.0,56.0,-100.00,NNW,331,9.0,12.0,55,0.00,,,0.00,625.000000,,2013-06-30 15:35:00,
2013-06-30 10:44:00,73.0,56.0,-100.00,NNW,331,9.0,12.0,55,0.00,,,0.00,625.000000,,2013-06-30 15:44:00,
2013-06-30 10:53:00,73.0,56.0,-100.00,NNW,331,9.0,12.0,55,0.00,,,0.00,625.000000,,2013-06-30 15:53:00,
2013-06-30 11:01:00,73.0,56.0,-100.00,NNW,331,9.0,12.0,55,0.00,,,0.00,625.000000,,2013-06-30 16:01:00,
2013-06-30 11:34:00,76.0,57.0,-100.00,NNW,344,7.0,13.0,51,0.00,,,0.00,782.000000,,2013-06-30 16:34:00,
2013-06-30 11:44:00,76.0,57.0,-100.00,NNW,344,7.0,13.0,51,0.00,,,0.00,782.000000,,2013-06-30 16:44:00,
2013-06-30 11:53:00,76.0,57.0,-100.00,NNW,344,7.0,13.0,51,0.00,,,0.00,782.000000,,2013-06-30 16:53:00,
2013-06-30 12:02:00,76.0,57.0,-100.00,NNW,344,7.0,13.0,51,0.00,,,0.00,782.000000,,2013-06-30 17:02:00,
2013-06-30 12:34:00,78.0,56.0,-100.00,NE,35,8.0,15.0,47,0.00,,,0.00,879.000000,,2013-06-30 17:34:00,
2013-06-30 12:43:00,78.0,56.0,-100.00,NE,35,8.0,15.0,47,0.00,,,0.00,879.000000,,2013-06-30 17:43:00,
2013-06-30 12:53:00,78.0,56.0,-100.00,NE,35,8.0,15.0,47,0.00,,,0.00,879.000000,,2013-06-30 17:53:00,
2013-06-30 13:02:00,78.0,56.0,-100.00,NE,35,8.0,15.0,47,0.00,,,0.00,879.000000,,2013-06-30 18:02:00,
2013-06-30 13:34:00,79.0,54.0,-100.00,North,359,8.0,14.0,42,0.00,,,0.00,951.000000,,2013-06-30 18:34:00,
2013-06-30 13:43:00,79.0,54.0,-100.00,North,359,8.0,14.0,42,0.00,,,0.00,951.000000,,2013-06-30 18:43:00,
2013-06-30 13:53:00,79.0,54.0,-100.00,North,359,8.0,14.0,42,0.00,,,0.00,951.000000,,2013-06-30 18:53:00,
2013-06-30 14:01:00,79.0,54.0,-100.00,North,359,8.0,14.0,42,0.00,,,0.00,951.000000,,2013-06-30 19:01:00,
2013-06-30 14:33:00,81.0,48.0,-100.00,NNE,14,6.0,15.0,32,0.00,,,0.00,982.000000,,2013-06-30 19:33:00,
2013-06-30 14:43:00,81.0,48.0,-100.00,NNE,14,6.0,15.0,32,0.00,,,0.00,982.000000,,2013-06-30 19:43:00,
2013-06-30 14:53:00,81.0,48.0,-100.00,NNE,14,6.0,15.0,32,0.00,,,0.00,982.000000,,2013-06-30 19:53:00,
2013-06-30 15:02:00,81.0,48.0,-100.00,NNE,14,6.0,15.0,32,0.00,,,0.00,982.000000,,2013-06-30 20:02:00,
2013-06-30 15:34:00,82.0,52.0,-100.00,NE,36,7.0,15.0,35,0.00,,,0.00,936.000000,,2013-06-30 20:34:00,
2013-06-30 15:42:00,82.0,52.0,-100.00,NE,36,7.0,15.0,35,0.00,,,0.00,936.000000,,2013-06-30 20:42:00,
2013-06-30 15:52:00,82.0,52.0,-100.00,NE,36,7.0,15.0,35,0.00,,,0.00,936.000000,,2013-06-30 20:52:00,
2013-06-30 16:01:00,82.0,52.0,-100.00,NE,36,7.0,15.0,35,0.00,,,0.00,936.000000,,2013-06-30 21:01:00,
2013-06-30 16:34:00,83.0,48.0,-100.00,NNE,18,5.0,14.0,30,0.00,,,0.00,848.000000,,2013-06-30 21:34:00,
2013-06-30 16:43:00,83.0,48.0,-100.00,NNE,18,5.0,14.0,30,0.00,,,0.00,848.000000,,2013-06-30 21:43:00,
2013-06-30 16:53:00,83.0,48.0,-100.00,NNE,18,5.0,14.0,30,0.00,,,0.00,848.000000,,2013-06-30 21:53:00,
2013-06-30 17:01:00,83.0,48.0,-100.00,NNE,18,5.0,14.0,30,0.00,,,0.00,848.000000,,2013-06-30 22:01:00,
2013-06-30 17:34:00,82.0,48.0,-100.00,NNE,13,6.0,11.0,31,0.00,,,0.00,641.000000,,2013-06-30 22:34:00,
2013-06-30 17:43:00,82.0,48.0,-100.00,NNE,13,6.0,11.0,31,0.00,,,0.00,641.000000,,2013-06-30 22:43:00,
2013-06-30 17:53:00,82.0,48.0,-100.00,NNE,13,6.0,11.0,31,0.00,,,0.00,641.000000,,2013-06-30 22:53:00,
2013-06-30 18:02:00,82.0,48.0,-100.00,NNE,13,6.0,11.0,31,0.00,,,0.00,641.000000,,2013-06-30 23:02:00,
2013-06-30 18:33:00,83.0,48.0,-100.00,North,9,4.0,10.0,30,0.00,,,0.00,558.000000,,2013-06-30 23:33:00,
2013-06-30 18:44:00,83.0,48.0,-100.00,North,9,4.0,10.0,30,0.00,,,0.00,558.000000,,2013-06-30 23:44:00,
2013-06-30 18:53:00,83.0,48.0,-100.00,North,9,4.0,10.0,30,0.00,,,0.00,558.000000,,2013-06-30 23:53:00,
2013-06-30 19:01:00,83.0,48.0,-100.00,North,9,4.0,10.0,30,0.00,,,0.00,558.000000,,2013-07-01 00:01:00,
2013-06-30 19:33:00,82.0,49.0,-100.00,NNE,23,3.0,7.0,32,0.00,,,0.00,363.000000,,2013-07-01 00:33:00,
2013-06-30 19:42:00,82.0,49.0,-100.00,NNE,23,3.0,7.0,32,0.00,,,0.00,363.000000,,2013-07-01 00:42:00,
2013-06-30 19:52:00,82.0,49.0,-100.00,NNE,23,3.0,7.0,32,0.00,,,0.00,363.000000,,2013-07-01 00:52:00,
2013-06-30 20:01:00,82.0,49.0,-100.00,NNE,23,3.0,7.0,32,0.00,,,0.00,363.000000,,2013-07-01 01:01:00,
2013-06-30 20:34:00,78.0,57.0,-100.00,WNW,295,4.0,5.0,48,0.00,,,0.00,173.000000,,2013-07-01 01:34:00,
2013-06-30 20:43:00,78.0,57.0,-100.00,WNW,295,4.0,5.0,48,0.00,,,0.00,173.000000,,2013-07-01 01:43:00,
2013-06-30 20:52:00,78.0,57.0,-100.00,WNW,295,4.0,5.0,48,0.00,,,0.00,173.000000,,2013-07-01 01:52:00,
2013-06-30 21:02:00,78.0,57.0,-100.00,WNW,295,4.0,5.0,48,0.00,,,0.00,173.000000,,2013-07-01 02:02:00,
2013-06-30 21:33:00,70.0,60.0,-100.00,NNW,329,1.0,6.0,70,0.00,,,0.00,39.000000,,2013-07-01 02:33:00,
2013-06-30 21:44:00,70.0,60.0,-100.00,NNW,329,1.0,6.0,70,0.00,,,0.00,39.000000,,2013-07-01 02:44:00,
2013-06-30 21:54:00,70.0,60.0,-100.00,NNW,329,1.0,6.0,70,0.00,,,0.00,39.000000,,2013-07-01 02:54:00,
2013-06-30 22:01:00,70.0,60.0,-100.00,NNW,329,1.0,6.0,70,0.00,,,0.00,39.000000,,2013-07-01 03:01:00,
2013-06-30 22:33:00,65.0,59.0,-100.00,WNW,296,2.0,2.0,82,0.00,,,0.00,1.000000,,2013-07-01 03:33:00,
2013-06-30 22:43:00,65.0,59.0,-100.00,WNW,296,2.0,2.0,82,0.00,,,0.00,1.000000,,2013-07-01 03:43:00,
2013-06-30 22:52:00,65.0,59.0,-100.00,WNW,296,2.0,2.0,82,0.00,,,0.00,1.000000,,2013-07-01 03:52:00,
2013-06-30 23:01:00,65.0,59.0,-100.00,WNW,296,2.0,2.0,82,0.00,,,0.00,1.000000,,2013-07-01 04:01:00,
2013-06-30 23:32:00,61.0,59.0,-100.00,NW,326,2.0,2.0,93,0.00,,,0.00,0.000000,,2013-07-01 04:32:00,
2013-06-30 23:43:00,61.0,59.0,-100.00,NW,326,2.0,2.0,93,0.00,,,0.00,0.000000,,2013-07-01 04:43:00,
2013-06-30 23:53:00,61.0,59.0,-100.00,NW,326,2.0,2.0,93,0.00,,,0.00,0.000000,,2013-07-01 04:53:00,